Weather History for Phoenix, AZ

Change the Weather History Date:

Monday, November 4, 2013

  Actual Average Record
Temperature  
Mean Temperature 69 °F 69 °F  
Max Temperature 80 °F 81 °F 95 °F (2001)
Min Temperature 57 °F 57 °F 32 °F (1956)
Degree Days  
Heating Degree Days 0 1  
Month to date heating degree days 0 4  
Since 1 July heating degree days 1 10  
Cooling Degree Days 4 5  
Month to date cooling degree days 22 22  
Year to date cooling degree days 4934 4558  
Growing Degree Days 18 (Base 50)    
Moisture  
Dew Point 38 °F    
Average Humidity 34    
Maximum Humidity 48    
Minimum Humidity 19    
Precipitation  
Precipitation T in 0.02 in 0.32 in (1910)
Month to date precipitation T 0.08  
Year to date precipitation 5.60 6.58  
Snow  
Snow 0.00 in - - ()
Month to date snowfall 0.0  
Year to date snowfall 0.0  
Since 1 July snowfall 0.0  
Snow Depth 0.00 in    
Sea Level Pressure  
Sea Level Pressure 29.72 in    
Wind  
Wind Speed 9 mph (NE)    
Max Wind Speed 22 mph    
Max Gust Speed 29 mph    
Visibility 10 miles    
Events Rain , Thunderstorm    
T = Trace of Precipitation, MM = Missing Value Source: NWS Daily Summary

Daily Weather History Graph

Daily Weather History Graph

Search for Another Location

Airport:

Trip Planner

Search our weather history database for the weather conditions in past years. The results will help you decide how hot, cold, wet, or windy it might be!

Date:

Astronomy

Nov. 04, 2013 Rise Set
Actual Time 6:49 AM MST 5:33 PM MST
Civil Twilight 6:23 AM MST 5:58 PM MST
Nautical Twilight 5:54 AM MST 6:28 PM MST
Astronomical Twilight 5:25 AM MST 6:57 PM MST
Moon 8:01 AM MST (11/4) 6:44 PM MST (11/4)
Length of Visible Light 11h 35m
Length of Day
10h 43m
New Moon, 2% of the Moon is Illuminated
Nov 4
New Moon
Nov 9
First Quarter
Nov 17
Full
Nov 25
Last Quarter
Dec 2
New

Hourly Weather History & Observations

Time (MST) Temp. Dew Point Humidity Pressure Visibility Wind Dir Wind Speed Gust Speed Precip Events Conditions
12:51 AM 63.0 °F 33.1 °F 33% 29.70 in 10.0 mi SE 4.6 mph - N/A   Clear
1:51 AM 62.1 °F 30.9 °F 31% 29.70 in 10.0 mi ESE 5.8 mph - N/A   Clear
2:51 AM 61.0 °F 32.0 °F 34% 29.70 in 10.0 mi East 8.1 mph - N/A   Clear
3:51 AM 60.1 °F 33.1 °F 36% 29.70 in 10.0 mi East 8.1 mph - N/A   Clear
4:51 AM 57.9 °F 33.1 °F 39% 29.70 in 10.0 mi East 6.9 mph - N/A   Clear
5:51 AM 57.0 °F 33.1 °F 40% 29.72 in 10.0 mi East 8.1 mph - N/A   Partly Cloudy
6:51 AM 57.0 °F 33.1 °F 40% 29.73 in 10.0 mi East 6.9 mph - N/A   Partly Cloudy
7:51 AM 59.0 °F 34.0 °F 39% 29.75 in 10.0 mi East 6.9 mph - N/A   Partly Cloudy
8:51 AM 63.0 °F 34.0 °F 34% 29.76 in 10.0 mi ENE 8.1 mph - N/A   Partly Cloudy
9:51 AM 70.0 °F 39.9 °F 33% 29.76 in 10.0 mi ESE 8.1 mph - N/A   Partly Cloudy
10:51 AM 73.9 °F 42.1 °F 32% 29.75 in 10.0 mi SSE 11.5 mph - N/A   Partly Cloudy
11:51 AM 77.0 °F 43.0 °F 30% 29.72 in 10.0 mi SSW 8.1 mph - N/A   Partly Cloudy
12:51 PM 78.1 °F 43.0 °F 29% 29.68 in 10.0 mi WSW 5.8 mph - N/A   Partly Cloudy
1:51 PM 80.1 °F 37.9 °F 22% 29.66 in 10.0 mi West 8.1 mph - N/A   Partly Cloudy
2:51 PM 78.1 °F 33.1 °F 19% 29.65 in 10.0 mi NW 11.5 mph - N/A   Mostly Cloudy
3:51 PM 79.0 °F 33.1 °F 19% 29.64 in 10.0 mi NW 11.5 mph 19.6 mph N/A   Mostly Cloudy
4:51 PM 78.1 °F 32.0 °F 19% 29.65 in 10.0 mi WNW 11.5 mph - N/A   Mostly Cloudy
5:51 PM 77.0 °F 32.0 °F 19% 29.65 in 10.0 mi NW 11.5 mph - N/A   Mostly Cloudy
6:51 PM 75.9 °F 33.1 °F 21% 29.66 in 10.0 mi WNW 6.9 mph - N/A   Mostly Cloudy
7:51 PM 73.0 °F 35.1 °F 25% 29.67 in 10.0 mi South 4.6 mph - N/A   Mostly Cloudy
8:51 PM 68.0 °F 50.0 °F 52% 29.73 in 10.0 mi West 18.4 mph 24.2 mph 0.00 in Rain Light Rain
9:08 PM 68.0 °F 46.0 °F 45% 29.75 in 10.0 mi NW 19.6 mph - 0.00 in   Mostly Cloudy
9:21 PM 66.9 °F 48.0 °F 51% 29.76 in 10.0 mi WNW 15.0 mph - 0.00 in Thunderstorm Thunderstorm
9:41 PM 66.0 °F 46.9 °F 50% 29.80 in 10.0 mi NNW 9.2 mph - 0.00 in   Mostly Cloudy
9:51 PM 66.0 °F 46.9 °F 50% 29.77 in 10.0 mi North 12.7 mph 20.7 mph 0.00 in   Mostly Cloudy
10:51 PM 64.9 °F 45.0 °F 48% 29.77 in 10.0 mi North 16.1 mph 23.0 mph N/A   Scattered Clouds
11:51 PM 64.9 °F 42.1 °F 43% 29.78 in 10.0 mi East 4.6 mph - N/A   Partly Cloudy